Location: Brno
(49.2000°N, 16.6330°E)
Time: 11:09:24
(UTC+02:00)

RESURS DK-1 - Visible Passes

Search period start: 06 July 2015 00:00
Search period end: 16 July 2015 00:00
Orbit: 558 x 566 km, 69.9° (Epoch: 06 July)

Date Brightness Start Highest point End Pass type
(mag) Time Alt. Az. Time Alt. Az. Time Alt. Az.
06 Jul 4.5 01:00:45 10° WNW 01:03:06 14° WSW 01:03:39 14° WSW visible
06 Jul 4.7 21:43:19 10° N 21:45:56 16° NE 21:48:37 10° E visible
06 Jul 2.3 23:20:30 10° NNW 23:24:42 88° WSW 23:26:49 28° SSE visible
07 Jul 4.8 01:01:09 10° W 01:02:11 11° WSW 01:02:46 10° WSW visible
07 Jul 4.4 21:42:17 10° N 21:45:20 19° NE 21:48:27 10° E visible
07 Jul 2.5 23:19:45 10° NW 23:23:55 67° WSW 23:25:58 28° SSE visible
08 Jul 4.1 21:41:18 10° N 21:44:43 24° NE 21:48:09 10° E visible
08 Jul 2.9 23:19:02 10° NW 23:23:06 49° WSW 23:25:09 26° S visible
09 Jul 3.7 21:40:23 10° NNW 21:44:04 29° NE 21:47:45 10° ESE visible
09 Jul 3.4 23:18:23 10° NW 23:22:15 37° WSW 23:24:22 22° SSW visible
10 Jul 3.4 21:39:28 10° NNW 21:43:23 37° NE 21:47:17 10° ESE visible
10 Jul 3.8 23:17:47 10° NW 23:21:24 28° WSW 23:23:38 17° SSW visible
11 Jul 3.0 21:38:37 10° NNW 21:42:40 47° NE 21:46:43 10° SE visible
11 Jul 4.2 23:17:18 10° WNW 23:20:31 21° WSW 23:22:55 13° SSW visible
12 Jul 2.6 21:37:46 10° NNW 21:41:56 62° ENE 21:46:04 10° SE visible
12 Jul 4.6 23:16:57 10° WNW 23:19:37 16° WSW 23:22:10 10° SW visible
13 Jul 2.4 21:36:57 10° NNW 21:41:10 82° ENE 21:45:20 10° SSE visible
13 Jul 4.9 23:16:56 10° WNW 23:18:43 12° WSW 23:20:18 10° SW visible
14 Jul 2.5 21:36:11 10° NNW 21:40:22 76° WSW 21:44:31 10° SSE visible
15 Jul 2.9 21:35:26 10° NW 21:39:33 56° WSW 21:43:38 10° SSE visible
